C/2011 L1 ( McNaught )

Japanese version
Home page
Updated on April 13, 2013

---------------------------------------------------------------------

* Profile

Discovery Date June 2, 2011
Magnitude 16.9 mag
Discoverer Robert H. McNaught (Siding Spring)

* Pictures

* Orbital Elements

Epoch 2010 Dec. 30.0 TT = JDT 2455560.5
T 2010 Dec. 18.31374 TT                                 MPC
q   2.2425173            (2000.0)            P               Q
n   0.02687943     Peri.  294.47678     -0.48506166     -0.11204114
a  11.0371265      Node   252.36544     +0.07204914     -0.99350678
e   0.7968206      Incl.   65.51048     -0.87150680     -0.01977546
P  36.7
From 119 observations 2011 June 2-Sept. 13, mean residual 0".6.

* Finding Charts

* Magnitudes Graph

        m1 = 11.0 + 5 log d + 10.0 log r

---------------------------------------------------------------------

The orbital elements are published on M.P.E.C. 2013-G31.
The charts are made with StellaNavigator Ver.8 (AstroArts).
The magnitudes graphs are made with Comet for Windows.

---------------------------------------------------------------------

Copyright(C) Seiichi Yoshida (comet@aerith.net). All rights reserved.